FW7959 Weather Reports


Display with metric or nautical units.
time (UTC)temp
F
wind
direction
speed
MPH
gust
MPH
rain 1hr
in
rain 24hr
in
rain mn
in
humidity
%
barometer
mb
20260510194852 55 196 5.0 8.0 0.00 0.44 0.28 74 1012.8
20260510194354 56 188 2.0 7.0 0.00 0.44 0.28 73 1012.8
20260510193855 56 210 3.0 9.0 0.00 0.44 0.28 72 1012.7
20260510193355 56 201 2.0 10.0 0.00 0.44 0.28 71 1012.6
20260510192858 56 222 3.0 10.0 0.00 0.44 0.28 71 1012.6
20260510192401 56 193 4.0 10.0 0.00 0.44 0.28 71 1012.6
20260510191901 57 200 5.0 9.0 0.00 0.44 0.28 70 1012.6
20260510190848 57 207 4.0 9.0 0.00 0.44 0.28 70 1012.5
20260510190349 57 213 5.0 10.0 0.00 0.44 0.28 69 1012.3
20260510185352 58 210 4.0 12.0 0.00 0.44 0.28 67 1012.1
20260510184853 58 201 6.0 12.0 0.00 0.47 0.28 66 1012.0
20260510183859 58 206 4.0 14.0 0.00 0.47 0.28 66 1012.1
20260510183358 58 239 4.0 14.0 0.00 0.47 0.28 66 1012.1
20260510182859 59 189 3.0 9.0 0.00 0.47 0.28 66 1012.0
20260510182342 59 221 5.0 9.0 0.00 0.47 0.28 66 1012.0
20260510181844 59 218 3.0 9.0 0.00 0.47 0.28 66 1011.9
20260510181346 59 197 3.0 11.0 0.00 0.47 0.28 65 1011.8
20260510175853 59 220 7.0 18.0 0.00 0.47 0.28 62 1011.9
20260510175355 59 180 9.0 17.0 0.00 0.47 0.28 63 1011.8
20260510174857 60 194 9.0 17.0 0.00 0.47 0.28 63 1011.8
20260510173402 60 196 5.0 13.0 0.00 0.47 0.28 63 1011.9
20260510172843 60 190 6.0 15.0 0.00 0.47 0.28 62 1011.8
20260510172344 60 178 7.0 16.0 0.00 0.47 0.28 62 1011.7
20260510171848 60 216 6.0 19.0 0.00 0.47 0.28 61 1011.8
20260510171349 60 196 9.0 17.0 0.00 0.47 0.28 57 1011.7
20260510170359 60 223 7.0 18.0 0.00 0.47 0.28 59 1011.8
20260510165902 60 200 11.0 17.0 0.00 0.47 0.28 57 1011.6
20260510165344 60 217 6.0 15.0 0.00 0.47 0.28 59 1011.8
20260510164847 61 218 9.0 16.0 0.00 0.57 0.28 58 1011.8
20260510164349 61 195 9.0 14.0 0.00 0.57 0.28 58 1011.7
20260510163854 61 207 6.0 14.0 0.00 0.57 0.28 61 1011.6
20260510163357 61 203 7.0 14.0 0.00 0.57 0.28 59 1011.8
20260510162900 60 184 7.0 14.0 0.00 0.57 0.28 60 1011.5
20260510161846 60 229 9.0 16.0 0.00 0.57 0.28 61 1011.7
20260510161350 60 215 6.0 17.0 0.00 0.57 0.28 62 1011.9
20260510155901 60 219 7.0 18.0 0.00 0.57 0.28 59 1011.8
20260510154849 60 197 9.0 20.0 0.00 0.57 0.28 60 1011.7
20260510154351 60 233 9.0 20.0 0.00 0.57 0.28 60 1011.9
20260510153855 60 188 9.0 16.0 0.00 0.57 0.28 59 1011.8
20260510152902 60 222 7.0 17.0 0.00 0.57 0.28 57 1011.6
20260510152345 60 196 7.0 15.0 0.00 0.57 0.28 58 1011.5
20260510151847 60 155 5.0 15.0 0.00 0.57 0.28 59 1011.6
20260510150358 59 194 6.0 18.0 0.00 0.57 0.28 61 1012.1
20260510145402 59 209 9.0 21.0 0.00 0.57 0.28 58 1012.0
20260510144902 59 220 12.0 23.0 0.00 0.58 0.28 58 1012.0
20260510144343 59 229 10.0 23.0 0.00 0.58 0.28 58 1012.0
20260510143345 59 219 12.0 23.0 0.00 0.58 0.28 62 1012.0
20260510142846 58 169 12.0 23.0 0.00 0.58 0.28 65 1012.2
20260510142348 57 209 9.0 19.0 0.00 0.58 0.28 67 1012.3
20260510141355 56 209 7.0 19.0 0.00 0.58 0.28 69 1012.4
20260510140855 56 205 7.0 22.0 0.00 0.58 0.28 69 1012.4
20260510135901 56 225 10.0 26.0 0.00 0.58 0.28 71 1012.7
20260510135407 56 209 11.0 23.0 0.00 0.58 0.28 73 1012.6
20260510134842 56 200 6.0 22.0 0.00 0.58 0.28 75 1012.4
20260510134346 56 187 7.0 22.0 0.00 0.58 0.28 75 1012.5
20260510133905 55 215 9.0 17.0 0.00 0.58 0.28 76 1012.4
20260510133410 55 213 7.0 14.0 0.00 0.58 0.28 77 1012.4
20260510132901 55 202 8.0 14.0 0.00 0.58 0.28 78 1012.4
20260510132343 55 238 4.0 13.0 0.00 0.58 0.28 80 1012.3
20260510131845 55 227 5.0 13.0 0.00 0.58 0.28 80 1012.4
20260510131350 55 190 6.0 10.0 0.00 0.58 0.28 81 1012.3
20260510130846 54 225 7.0 11.0 0.00 0.58 0.28 81 1012.2
20260510124403 55 215 6.0 14.0 0.00 0.59 0.28 81 1012.4
20260510123901 55 144 7.0 14.0 0.01 0.59 0.28 80 1012.5
20260510123358 55 190 5.0 16.0 0.01 0.59 0.28 79 1012.3
20260510122901 55 232 7.0 16.0 0.01 0.59 0.28 79 1012.5
20260510122343 56 229 8.0 16.0 0.01 0.59 0.28 77 1012.5
20260510121846 56 207 4.0 12.0 0.01 0.59 0.28 77 1012.6
20260510121351 56 211 6.0 14.0 0.01 0.59 0.28 78 1012.6
20260510120854 56 169 7.0 14.0 0.01 0.59 0.28 78 1012.3
20260510120400 56 208 7.0 13.0 0.01 0.59 0.28 79 1012.2
20260510115901 55 205 4.0 14.0 0.01 0.59 0.28 80 1012.2
20260510115401 55 161 7.0 14.0 0.01 0.59 0.28 80 1012.5
20260510114844 55 167 4.0 11.0 0.01 0.66 0.28 82 1012.6
20260510114346 55 192 4.0 13.0 0.01 0.66 0.28 82 1012.5
20260510113353 54 156 4.0 12.0 0.00 0.65 0.28 82 1012.5
20260510112852 54 221 4.0 14.0 0.00 0.65 0.28 82 1012.7
20260510112356 54 215 8.0 14.0 0.00 0.65 0.28 82 1012.8
20260510111856 54 198 7.0 19.0 0.00 0.65 0.28 83 1012.7
20260510111357 53 212 9.0 19.0 0.00 0.65 0.28 82 1012.7
20260510110347 53 213 9.0 16.0 0.03 0.65 0.28 83 1012.8
20260510105847 53 225 7.0 16.0 0.11 0.65 0.28 83 1012.7
20260510105347 53 188 8.0 16.0 0.15 0.65 0.28 82 1012.7
20260510104849 53 190 9.0 18.0 0.22 0.70 0.28 82 1012.6
20260510103853 53 219 11.0 16.0 0.24 0.70 0.28 83 1012.7
20260510103355 52 233 4.0 11.0 0.24 0.70 0.28 83 1012.7
20260510102857 52 221 6.0 12.0 0.24 0.70 0.28 83 1012.7
20260510101901 51 258 7.0 13.0 0.24 0.70 0.28 83 1012.8
20260510100845 51 202 3.0 14.0 0.24 0.70 0.28 83 1012.8
20260510100352 51 230 7.0 14.0 0.20 0.67 0.24 83 1012.9
20260510095400 52 251 7.0 18.0 0.09 0.55 0.13 82 1012.3
20260510094900 55 265 10.0 15.0 0.03 0.50 0.07 83 1012.2
20260510094403 55 161 7.0 15.0 0.01 0.47 0.05 82 1011.6
20260510093845 55 131 9.0 15.0 0.00 0.46 0.04 82 1011.6
20260510093349 56 144 9.0 14.0 0.00 0.46 0.04 82 1011.7
20260510092356 56 147 7.0 17.0 0.00 0.46 0.04 82 1011.8
20260510091855 56 157 10.0 17.0 0.01 0.46 0.04 82 1011.7
20260510091356 56 157 8.0 16.0 0.01 0.46 0.04 82 1011.9
20260510090859 55 111 8.0 15.0 0.01 0.46 0.04 82 1012.0
20260510090359 55 123 7.0 15.0 0.01 0.46 0.04 83 1012.0
20260510085900 55 146 6.0 17.0 0.01 0.46 0.04 83 1012.0
20260510085402 55 157 10.0 17.0 0.01 0.46 0.04 83 1012.2
20260510084902 54 129 6.0 14.0 0.01 0.47 0.04 83 1012.2
20260510084402 54 157 8.0 14.0 0.02 0.47 0.04 83 1012.2
20260510083844 54 115 10.0 14.0 0.02 0.47 0.04 83 1012.4
20260510083345 54 188 2.0 14.0 0.03 0.47 0.04 83 1012.5
20260510082847 54 163 8.0 14.0 0.03 0.47 0.04 83 1012.5
20260510082351 53 175 7.0 11.0 0.03 0.47 0.04 83 1012.6
20260510081856 53 182 5.0 15.0 0.02 0.46 0.03 83 1012.6
20260510081359 53 159 8.0 15.0 0.02 0.46 0.03 84 1012.7
20260510080901 53 188 6.0 11.0 0.02 0.46 0.03 84 1012.8
20260510075849 53 196 0.0 4.0 0.02 0.46 0.03 84 1012.6
20260510075346 52 196 0.0 4.0 0.02 0.46 0.03 84 1012.5
20260510074849 52 197 1.0 3.0 0.02 0.46 0.03 84 1012.7
20260510074350 52 197 0.0 3.0 0.01 0.45 0.02 84 1012.9
20260510073356 52 197 3.0 5.0 0.00 0.44 0.01 84 1013.0
20260510072856 52 196 3.0 5.0 0.00 0.44 0.01 84 1012.9
20260510072358 52 194 2.0 6.0 0.00 0.44 0.01 84 1012.9
20260510071859 51 193 2.0 6.0 0.00 0.44 0.01 84 1012.8
20260510071358 51 197 1.0 5.0 0.00 0.44 0.01 84 1012.7
20260510070901 51 197 1.0 5.0 0.00 0.44 0.01 84 1012.8
20260510065859 51 198 2.0 5.0 0.00 0.44 0.01 84 1012.7
20260510064350 51 198 1.0 2.0 0.00 0.44 0.01 84 1012.7
20260510063849 51 198 0.0 0.0 0.00 0.44 0.01 84 1012.6
20260510063349 51 198 0.0 0.0 0.00 0.44 0.01 84 1012.6
20260510062354 51 198 0.0 1.0 0.00 0.44 0.01 84 1012.5
20260510061853 51 198 0.0 1.0 0.00 0.44 0.01 84 1012.6
20260510061354 51 198 0.0 0.0 0.00 0.44 0.01 84 1012.6
20260510060359 50 198 0.0 1.0 0.00 0.44 0.01 84 1012.5
20260510055902 50 198 0.0 2.0 0.00 0.44 0.01 84 1012.5
20260510055344 50 198 1.0 2.0 0.00 0.44 0.01 84 1012.5
20260510054848 50 198 0.0 2.0 0.01 0.44 0.01 84 1012.5
20260510054350 50 198 0.0 2.0 0.01 0.44 0.01 84 1012.4
20260510053359 50 198 0.0 0.0 0.01 0.44 0.01 84 1012.4
20260510052900 50 198 0.0 0.0 0.01 0.44 0.01 84 1012.5
20260510052401 50 198 0.0 0.0 0.01 0.44 0.01 84 1012.5
20260510051902 50 198 0.0 0.0 0.01 0.44 0.01 84 1012.6
20260510051343 50 198 0.0 0.0 0.01 0.44 0.01 84 1012.5
20260510050844 50 198 0.0 2.0 0.01 0.44 0.01 84 1012.5
20260510050349 50 198 1.0 2.0 0.01 0.44 0.01 84 1012.5
20260510045849 50 198 0.0 0.0 0.01 0.44 0.01 84 1012.5
20260510045352 50 198 0.0 0.0 0.01 0.44 0.01 84 1012.4
20260510044851 50 198 0.0 0.0 0.00 0.43 0.00 84 1012.4
20260510044355 50 198 0.0 0.0 0.00 0.43 0.00 84 1012.4
20260510043855 50 198 0.0 0.0 0.00 0.43 0.00 84 1012.4
20260510043356 50 198 0.0 0.0 0.00 0.43 0.00 84 1012.4
20260510042858 50 198 0.0 0.0 0.00 0.43 0.00 84 1012.4
20260510042402 50 198 0.0 0.0 0.00 0.43 0.00 84 1012.5
20260510041902 50 198 0.0 2.0 0.00 0.43 0.00 84 1012.4
20260510041343 50 198 0.0 2.0 0.00 0.43 0.00 84 1012.5
20260510040350 51 198 0.0 2.0 0.00 0.43 0.00 84 1012.4
20260510035850 51 198 0.0 3.0 0.00 0.43 0.00 84 1012.4
20260510035349 51 198 1.0 3.0 0.00 0.43 0.00 84 1012.5
20260510034850 51 198 0.0 3.0 0.00 0.43 0.00 84 1012.5
20260510034353 51 198 0.0 2.0 0.00 0.43 0.00 84 1012.5
20260510033855 51 198 0.0 2.0 0.00 0.43 0.00 84 1012.5
20260510033358 51 198 0.0 4.0 0.00 0.43 0.00 84 1012.5
20260510032858 51 198 3.0 4.0 0.00 0.43 0.00 84 1012.6
20260510031845 51 198 1.0 5.0 0.00 0.43 0.00 84 1012.8
20260510031348 51 196 1.0 3.0 0.00 0.43 0.00 84 1012.7
20260510030851 51 196 0.0 2.0 0.00 0.43 0.00 84 1012.6
20260510030353 50 196 0.0 2.0 0.00 0.43 0.00 84 1012.5
20260510025856 50 196 0.0 4.0 0.00 0.43 0.00 84 1012.6
20260510024901 51 196 1.0 5.0 0.00 0.43 0.00 84 1012.6
20260510024343 51 196 3.0 5.0 0.00 0.43 0.00 84 1012.5
20260510023845 51 202 2.0 4.0 0.00 0.43 0.00 84 1012.7
20260510023348 51 202 2.0 5.0 0.00 0.43 0.00 84 1012.7
20260510022847 51 202 2.0 5.0 0.00 0.43 0.00 84 1012.8
20260510022349 51 213 3.0 5.0 0.00 0.43 0.00 84 1012.9
20260510021849 51 213 3.0 4.0 0.00 0.43 0.00 84 1012.9
20260510021353 51 213 2.0 4.0 0.00 0.43 0.00 84 1012.8
20260510020858 51 213 2.0 4.0 0.00 0.43 0.00 84 1012.9
20260510020356 51 213 2.0 4.0 0.00 0.43 0.00 84 1012.8
20260510015402 51 213 1.0 4.0 0.00 0.43 0.00 84 1012.8
20260510014347 51 213 3.0 5.0 0.00 0.43 0.00 84 1012.9
20260510013850 51 213 3.0 5.0 0.00 0.43 0.00 84 1012.8
20260510013352 52 213 3.0 5.0 0.00 0.43 0.00 84 1012.7
20260510012853 52 215 1.0 2.0 0.00 0.43 0.00 84 1012.8
20260510011855 52 214 0.0 3.0 0.00 0.43 0.00 84 1012.9
20260510011358 52 214 0.0 2.0 0.00 0.43 0.00 84 1012.9
20260510010858 52 214 1.0 4.0 0.00 0.43 0.00 84 1012.9
20260510005902 52 214 0.0 4.0 0.00 0.43 0.00 84 1012.9
20260510005402 52 215 0.0 5.0 0.00 0.43 0.00 84 1012.9
20260510004844 52 215 2.0 6.0 0.00 0.43 0.00 84 1013.0
20260510004343 52 215 4.0 6.0 0.00 0.43 0.00 84 1012.9
20260510003845 52 215 1.0 5.0 0.00 0.43 0.00 84 1012.9
20260510003349 52 215 3.0 5.0 0.00 0.43 0.00 84 1012.9
20260510002849 52 213 3.0 4.0 0.00 0.43 0.00 84 1013.0
20260510002354 52 213 1.0 5.0 0.00 0.43 0.00 84 1013.0
20260510001900 52 213 0.0 5.0 0.00 0.43 0.00 84 1013.1
20260510001359 52 210 1.0 5.0 0.00 0.43 0.00 84 1013.1
20260510000902 52 210 1.0 5.0 0.00 0.43 0.00 84 1013.1
20260510000342 52 210 1.0 4.0 0.00 0.43 0.00 84 1013.1
20260509235846 52 209 0.0 4.0 0.00 0.43 0.00 84 1013.0
20260509235345 52 209 1.0 4.0 0.00 0.43 0.00 84 1013.0
20260509234846 52 209 2.0 5.0 0.00 0.43 0.00 84 1013.0
20260509234345 51 209 3.0 5.0 0.00 0.43 0.00 84 1013.0
20260509232346 51 209 0.0 4.0 0.01 0.43 0.00 83 1013.1
20260509231847 51 208 0.0 4.0 0.01 0.43 0.00 84 1013.2
20260509231346 51 208 2.0 4.0 0.01 0.43 0.00 84 1013.1
20260509230846 51 208 2.0 4.0 0.01 0.43 0.00 84 1013.1
20260509230349 51 209 1.0 5.0 0.01 0.43 0.00 84 1013.0
20260509225853 51 209 1.0 5.0 0.02 0.43 0.00 84 1013.0
20260509225355 51 209 2.0 3.0 0.02 0.43 0.43 84 1013.0
20260509224857 51 209 0.0 4.0 0.02 0.43 0.43 84 1012.9
20260509224358 51 209 0.0 5.0 0.02 0.43 0.43 84 1013.0
20260509223857 51 209 1.0 5.0 0.02 0.43 0.43 84 1013.0
20260509223357 51 257 1.0 4.0 0.02 0.43 0.43 84 1012.9
20260509222859 51 260 0.0 2.0 0.03 0.43 0.43 84 1012.9
20260509221845 51 260 1.0 2.0 0.02 0.43 0.43 84 1012.8
20260509221346 51 260 1.0 2.0 0.02 0.43 0.43 84 1012.8
20260509220849 51 260 0.0 2.0 0.02 0.43 0.43 84 1012.7
20260509215854 51 260 1.0 5.0 0.02 0.42 0.42 84 1012.5
20260509215357 52 219 3.0 4.0 0.01 0.41 0.41 84 1012.6
20260509214858 51 216 0.0 2.0 0.01 0.41 0.41 84 1012.3
20260509214356 51 216 0.0 3.0 0.02 0.41 0.41 84 1012.2
20260509213856 51 216 1.0 5.0 0.02 0.41 0.41 84 1012.2
20260509213356 52 216 1.0 5.0 0.02 0.41 0.41 84 1012.1
20260509212856 51 216 1.0 5.0 0.02 0.40 0.40 84 1012.1
20260509212359 51 216 1.0 5.0 0.03 0.40 0.40 84 1012.1
20260509211859 52 216 2.0 4.0 0.05 0.40 0.40 84 1012.0
20260509211400 52 216 1.0 4.0 0.06 0.40 0.40 84 1011.9
20260509210900 52 217 1.0 4.0 0.09 0.40 0.40 84 1012.0
20260509210343 52 216 1.0 4.0 0.10 0.40 0.40 84 1012.0
20260509205843 52 220 1.0 3.0 0.10 0.40 0.40 84 1011.9
20260509205346 52 221 1.0 6.0 0.10 0.40 0.40 84 1011.8
20260509203857 52 221 2.0 8.0 0.09 0.39 0.39 84 1011.7
20260509203356 52 242 6.0 10.0 0.09 0.39 0.39 84 1011.7
20260509202857 52 218 6.0 15.0 0.08 0.38 0.38 84 1011.6
20260509202357 52 219 7.0 19.0 0.07 0.37 0.37 83 1011.6
20260509201858 52 243 8.0 22.0 0.06 0.36 0.36 84 1011.4
20260509201401 53 217 12.0 22.0 0.04 0.34 0.34 83 1011.2
20260509200901 54 207 10.0 20.0 0.02 0.31 0.31 83 1011.1
20260509200343 55 252 1.0 4.0 0.00 0.30 0.30 83 1009.8